PLF206 XXXX-EPMB

Flight info

Callsign PLF206
Flight time N/A
Altitude 10000
Route EPMBD EPMBS
Aircraft AN28/M-SDFGIRY/S

Departure

Time N/A
Airport XXXX

Arrival

Time 2026-04-26 13:50
Airport Malbork Królewo Air Base (EPMB)
Time Latitude Longitude Altitude Speed Heading
2026-04-26 13:21 53.03058 20.18967 2868 ft 162 kts 304°
2026-04-26 13:21 53.03620 20.17336 2818 ft 168 kts 304°
2026-04-26 13:21 53.04230 20.15637 2470 ft 175 kts 305°
2026-04-26 13:21 53.04857 20.13909 2129 ft 173 kts 306°
2026-04-26 13:22 53.05488 20.12220 1835 ft 169 kts 307°
2026-04-26 13:22 53.06121 20.10587 1811 ft 168 kts 306°
2026-04-26 13:22 53.06747 20.08923 1682 ft 172 kts 306°
2026-04-26 13:22 53.07384 20.07242 1557 ft 165 kts 307°
2026-04-26 13:23 53.08034 20.05742 1670 ft 161 kts 311°
2026-04-26 13:23 53.08808 20.04319 1507 ft 168 kts 316°
2026-04-26 13:23 53.09631 20.02973 1546 ft 162 kts 320°
2026-04-26 13:23 53.10405 20.01824 2120 ft 138 kts 321°
2026-04-26 13:24 53.11173 20.00694 2079 ft 155 kts 321°
2026-04-26 13:24 53.12003 19.99516 2157 ft 157 kts 323°
2026-04-26 13:24 53.12900 19.98462 2145 ft 161 kts 327°
2026-04-26 13:24 53.13845 19.97375 2038 ft 165 kts 327°
2026-04-26 13:25 53.14757 19.96339 2280 ft 152 kts 327°
2026-04-26 13:25 53.15615 19.95350 2544 ft 151 kts 326°
2026-04-26 13:25 53.16482 19.94287 2538 ft 159 kts 324°
2026-04-26 13:25 53.17388 19.93139 2375 ft 166 kts 325°
2026-04-26 13:26 53.18343 19.92071 2358 ft 165 kts 329°
2026-04-26 13:26 53.19265 19.91058 2705 ft 149 kts 326°
2026-04-26 13:26 53.20057 19.90059 3053 ft 141 kts 324°
2026-04-26 13:26 53.20858 19.89046 3253 ft 147 kts 325°
2026-04-26 13:27 53.21672 19.87999 3427 ft 150 kts 323°
2026-04-26 13:27 53.22496 19.86869 3506 ft 156 kts 322°
2026-04-26 13:27 53.23336 19.85714 3437 ft 161 kts 323°
2026-04-26 13:27 53.24286 19.84647 3280 ft 167 kts 330°
2026-04-26 13:28 53.25288 19.83678 3321 ft 167 kts 330°
2026-04-26 13:28 53.26316 19.82703 3139 ft 172 kts 331°
2026-04-26 13:28 53.27322 19.81731 3323 ft 160 kts 331°
2026-04-26 13:28 53.28244 19.80830 3606 ft 151 kts 330°
2026-04-26 13:29 53.29162 19.79891 3599 ft 160 kts 329°
2026-04-26 13:29 53.29817 19.79203 3476 ft 166 kts 329°
2026-04-26 13:29 53.30813 19.78099 4749 ft 111 kts 327°
2026-04-26 13:29 53.31475 19.77325 5156 ft 124 kts 325°
2026-04-26 13:30 53.32180 19.76484 5682 ft 117 kts 326°
2026-04-26 13:30 53.32785 19.75776 6492 ft 97 kts 328°
2026-04-26 13:30 53.33346 19.75148 7051 ft 99 kts 327°
2026-04-26 13:30 53.33915 19.74420 7524 ft 106 kts 324°
2026-04-26 13:31 53.34470 19.73610 8060 ft 105 kts 322°
2026-04-26 13:31 53.35021 19.72760 8415 ft 113 kts 324°
2026-04-26 13:31 53.35648 19.71932 8742 ft 120 kts 326°
2026-04-26 13:31 53.36306 19.71020 9013 ft 127 kts 324°
2026-04-26 13:32 53.36993 19.70007 9235 ft 134 kts 323°
2026-04-26 13:32 53.37681 19.68937 9514 ft 136 kts 322°
2026-04-26 13:32 53.38369 19.67821 9665 ft 142 kts 322°
2026-04-26 13:32 53.39117 19.66667 9698 ft 148 kts 323°
2026-04-26 13:33 53.39889 19.65505 9694 ft 153 kts 323°
2026-04-26 13:33 53.40739 19.64262 9333 ft 170 kts 323°
2026-04-26 13:33 53.41651 19.62951 9197 ft 169 kts 324°
2026-04-26 13:33 53.42532 19.61740 9324 ft 159 kts 326°
2026-04-26 13:34 53.43400 19.60614 9379 ft 159 kts 326°
2026-04-26 13:34 53.44277 19.59463 9213 ft 166 kts 325°
2026-04-26 13:34 53.45215 19.58229 8852 ft 176 kts 325°
2026-04-26 13:34 53.45874 19.57360 8628 ft 179 kts 325°
2026-04-26 13:35 53.47169 19.55635 8088 ft 181 kts 324°
2026-04-26 13:35 53.48171 19.54361 7505 ft 180 kts 329°
2026-04-26 13:35 53.49242 19.53395 7311 ft 169 kts 334°
2026-04-26 13:35 53.50284 19.52598 7372 ft 160 kts 337°
2026-04-26 13:36 53.51307 19.51902 7549 ft 149 kts 339°
2026-04-26 13:36 53.52086 19.51426 8615 ft 107 kts 339°
2026-04-26 13:36 53.52833 19.50908 8792 ft 126 kts 337°
2026-04-26 13:36 53.53636 19.50286 9203 ft 121 kts 336°
2026-04-26 13:37 53.54395 19.49637 9520 ft 127 kts 334°
2026-04-26 13:37 53.55213 19.48901 9610 ft 138 kts 334°
2026-04-26 13:37 53.56115 19.48055 9191 ft 165 kts 333°
2026-04-26 13:37 53.57132 19.47083 9058 ft 166 kts 332°
2026-04-26 13:38 53.58106 19.46153 9169 ft 158 kts 334°
2026-04-26 13:38 53.59045 19.45356 9575 ft 139 kts 335°
2026-04-26 13:38 53.59887 19.44613 9861 ft 139 kts 334°
2026-04-26 13:38 53.60765 19.43799 9880 ft 149 kts 334°
2026-04-26 13:39 53.61675 19.42931 9909 ft 151 kts 334°
2026-04-26 13:39 53.62645 19.42081 9704 ft 162 kts 335°
2026-04-26 13:39 53.63667 19.41196 9523 ft 167 kts 334°
2026-04-26 13:39 53.64715 19.40235 9179 ft 175 kts 333°
2026-04-26 13:40 53.65771 19.39243 9099 ft 171 kts 332°
2026-04-26 13:40 53.66813 19.38240 8771 ft 177 kts 332°
2026-04-26 13:40 53.67907 19.37177 8130 ft 183 kts 332°
2026-04-26 13:40 53.69008 19.36102 7541 ft 182 kts 331°
2026-04-26 13:41 53.70086 19.35004 7069 ft 181 kts 330°
2026-04-26 13:41 53.71164 19.33934 6464 ft 182 kts 330°
2026-04-26 13:41 53.72254 19.32844 5875 ft 182 kts 330°
2026-04-26 13:41 53.73341 19.31757 5282 ft 181 kts 330°
2026-04-26 13:42 53.74422 19.30645 4709 ft 181 kts 329°
2026-04-26 13:42 53.75493 19.29554 4157 ft 180 kts 330°
2026-04-26 13:42 53.76562 19.28482 3808 ft 174 kts 332°
2026-04-26 13:42 53.77671 19.27685 3661 ft 172 kts 340°
2026-04-26 13:43 53.78839 19.27182 3369 ft 176 kts 349°
2026-04-26 13:43 53.80056 19.27011 2943 ft 176 kts 358°
2026-04-26 13:43 53.81268 19.27293 2663 ft 175 kts
2026-04-26 13:43 53.82461 19.27726 2510 ft 174 kts
2026-04-26 13:44 53.83622 19.28239 2546 ft 172 kts 12°
2026-04-26 13:44 53.84771 19.28842 2529 ft 173 kts 12°
2026-04-26 13:44 53.85923 19.29454 2573 ft 169 kts 12°
2026-04-26 13:44 53.87014 19.30094 2620 ft 168 kts 14°
2026-04-26 13:45 53.88133 19.30723 2549 ft 171 kts 13°
2026-04-26 13:45 53.89276 19.31331 2495 ft 173 kts 12°
2026-04-26 13:45 53.90422 19.32038 2352 ft 176 kts 14°
2026-04-26 13:45 53.91580 19.32267 2296 ft 165 kts 348°
2026-04-26 13:46 53.92496 19.31224 1978 ft 170 kts 321°
2026-04-26 13:46 53.93382 19.29873 1765 ft 171 kts 320°
2026-04-26 13:46 53.94264 19.28534 1680 ft 169 kts 321°
2026-04-26 13:46 53.95086 19.27150 1771 ft 164 kts 312°
2026-04-26 13:47 53.95744 19.25654 1928 ft 156 kts 314°
2026-04-26 13:47 53.96455 19.24250 1793 ft 163 kts 312°
2026-04-26 13:47 53.97137 19.22736 2012 ft 158 kts 310°
2026-04-26 13:47 53.97755 19.21259 2339 ft 151 kts 307°
2026-04-26 13:48 53.98240 19.19597 2360 ft 164 kts 298°
2026-04-26 13:48 53.98608 19.17767 2422 ft 163 kts 292°
2026-04-26 13:48 53.99236 19.16314 2206 ft 152 kts 328°
2026-04-26 13:48 54.00132 19.15693 2092 ft 115 kts 354°
2026-04-26 13:49 54.00755 19.15953 1834 ft 78 kts 13°
2026-04-26 13:49 54.01261 19.16318 1414 ft 83 kts 12°
2026-04-26 13:49 54.01799 19.16651 999 ft 82 kts
2026-04-26 13:49 54.02464 19.16752 261 ft 105 kts 353°
2026-04-26 13:50 54.02983 19.16119 248 ft 106 kts 264°
2026-04-26 13:50 54.02805 19.14993 183 ft 85 kts 277°
2026-04-26 13:50 54.02710 19.14087 60 ft 64 kts 275°
2026-04-26 13:50 54.02684 19.13675 19 ft 0 kts 248°
2026-04-26 13:51 54.02669 19.13532 20 ft 12 kts 256°
2026-04-26 13:51 54.02667 19.13519 20 ft 3 kts 264°
2026-04-26 13:51 54.02741 19.13288 17 ft 28 kts 336°
2026-04-26 13:51 54.02873 19.13103 16 ft 21 kts 314°
2026-04-26 13:52 54.02932 19.13129 16 ft 12 kts 47°
2026-04-26 13:52 54.02985 19.13182 16 ft 0 kts 39°